Hourly Data Report for June 29, 2001

SHERBROOKE A
QUEBEC

45°26'00.000" N
71°41'00.000" W
241.40 m
7028124
71610
YSC

Download Data

Hourly Data (June 2001)
Hourly Data Report for June 29, 2001
TIME
LST
Temp Definition
°C
Dew Point Definition
°C
Rel Hum Definition
%
Precip. Amount Definition
mm

Wind Dir Definition
10's deg

Wind Spd Definition
km/h
Visibility Definition
km
Stn Press Definition
kPa
Hmdx Definition


Wind Chill Definition


Weather Definition


00:00 8.3 7.4 94   10 4 15.0 99.14      
01:00 8.5 7.5 93   12 6 15.0 99.15      
02:00 7.4 6.9 97     0 15.0 99.13      
03:00 6.8 6.3 97     0 15.0 99.15      
04:00 5.8 5.6 99   11 4 15.0 99.19      
05:00 7.9 7.5 97   8 7 15.0 99.22      
06:00 10.2 9.2 94   8 4 15.0 99.22      
07:00 11.4 9.7 89   8 6 19.3 99.22     Rain
08:00 13.3 10.2 81     0 24.1 99.23     Mostly Cloudy
09:00 16.8 12.3 75   21 6 24.1 99.12     Cloudy
10:00 18.2 12.0 67   22 7 24.1 99.05     Cloudy
11:00 17.7 11.4 67   24 11 24.1 99.04     Cloudy
12:00 19.5 11.5 60   25 11 24.1 98.95     Rain
13:00 19.4 11.5 60   22 17 24.1 98.89     Cloudy
14:00 18.5 11.5 64   21 11 24.1 98.83     Cloudy
15:00 18.0 11.8 67   21 9 24.1 98.76     Cloudy
16:00 18.3 12.5 69   21 9 24.1 98.65     Cloudy
17:00 18.5 12.8 69   19 13 15.0 98.55      
18:00 19.2 14.0 72   19 11 15.0 98.46      
19:00 18.4 14.2 77   16 6 15.0 98.39      
20:00 15.7 13.7 88   14 6 15.0 98.34      
21:00 14.9 13.3 90   17 4 15.0 98.33      
22:00 17.1 14.4 84     0 15.0 98.26      
23:00 14.6 13.7 94     0 12.9 98.24      

Notes on Data Quality.

Legend

  • E = Estimated
  • M = Missing
  • NA = Not Available*
  • [empty] = Indicates an unobserved value
Date modified: